Dewpoint
51 50 51 51 51 50 50 51 52 53 53 53 53 54 56 57 58 58 57 55 53 51 50 48 45 44 39 44 41 44 46 43 37 32 29 28 26 25 23 23 23 22 19 19 18 18 18
50 51 50 50 49 49 50 50 52 52 53 53 53 53 54 55 57 58 57 55 53 51 50 45 44 43 39 41 44 40 33 36 32 31 30 28 25 25 24 23 21 22 22 21 17 16 17
48 48 49 49 48 49 50 50 49 50 50 50 52 53 53 53 54 56 57 56 53 51 47 44 44 38 38 41 44 44 32 29 30 31 31 28 28 25 23 21 22 21 19 20 20 20 21
47 46 46 48 48 49 50 48 48 50 50 51 51 52 52 53 52 53 56 55 53 50 45 44 43 37 40 44 44 42 42 41 32 30 30 30 29 26 24 23 22 20 21 21 21 20 20
45 45 45 45 47 47 49 50 50 51 51 51 51 51 51 52 52 52 55 54 51 48 45 44 39 40 39 41 41 41 37 34 33 31 28 29 27 26 26 22 21 22 21 22 21 20 19
45 44 44 46 46 48 49 50 51 50 50 50 50 50 50 51 52 53 53 50 48 44 42 40 37 38 39 37 37 34 27 29 30 26 25 26 24 22 23 22 19 19 17 16 17 17 17
44 44 44 44 47 48 49 48 48 48 48 49 49 49 50 51 52 51 48 46 44 43 40 41 33 34 32 34 31 31 31 27 24 23 18 23 24 23 22 22 21 20 18 18 18 18 17
46 45 45 44 45 46 46 46 46 47 48 48 48 49 50 51 52 50 49 46 42 43 38 40 40 37 36 34 32 33 34 29 28 22 21 19 22 24 24 22 20 19 18 17 17 16 16
46 46 46 45 45 45 45 45 46 46 48 48 48 48 50 50 51 50 49 47 47 42 40 36 33 34 34 35 32 32 31 31 30 27 25 23 22 21 18 16 14 14 14 16 14 13 15
45 46 45 43 45 46 47 47 46 46 48 48 48 48 50 50 49 49 47 50 41 45 35 26 24 31 32 30 30 32 33 30 28 27 27 23 21 19 19 18 17 14 18 18 16 14 16
44 44 45 46 46 47 47 48 47 46 47 47 47 48 50 51 48 46 46 39 44 45 20 11 18 28 27 30 27 22 30 30 28 27 26 25 23 21 23 24 23 20 21 23 21 22 22
45 45 45 46 46 47 47 48 47 47 46 46 47 48 49 50 49 47 39 40 45 33 22 15 19 23 25 26 27 26 23 24 27 26 26 25 26 25 25 28 26 18 16 20 23 19 17
45 46 45 45 46 46 47 48 47 47 46 47 47 49 49 51 46 43 40 44 32 25 18 13 13 20 19 19 22 24 24 19 19 22 23 23 22 22 26 25 20 18 17 14 21 18 15
44 45 45 45 45 46 47 48 47 46 46 46 47 48 51 50 46 41 43 38 26 19 20 12 15 15 18 19 20 20 19 17 19 21 19 18 20 20 23 24 21 18 19 22 16 15 16
42 43 45 45 45 46 46 47 47 46 45 46 48 50 50 49 44 43 41 30 25 22 15 17 17 16 13 16 17 16 15 15 17 18 17 20 20 23 22 23 21 20 19 23 22 25 19
41 40 42 44 44 45 45 46 45 45 45 46 45 43 41 47 44 44 37 31 28 24 21 19 16 18 18 15 15 17 16 17 16 18 19 20 18 28 25 18 17 15 14 17 28 20 13
39 39 41 42 44 44 44 45 44 45 46 47 44 39 40 45 44 39 31 32 33 29 25 26 22 18 21 21 22 26 21 15 21 19 21 20 24 27 26 20 17 16 11 13 16 15 19
39 39 40 41 42 43 44 45 44 47 50 46 40 35 41 44 33 32 32 36 35 30 31 30 25 23 21 22 22 17 22 24 26 25 23 28 27 24 23 20 17 15 16 16 13 12 13
39 39 40 40 42 43 44 45 45 44 45 40 33 32 39 41 29 30 33 36 35 33 31 27 22 21 23 23 21 19 17 26 26 29 27 29 29 20 18 22 17 14 14 13 16 17 14
38 39 39 39 40 43 44 44 45 44 43 40 34 28 31 34 36 32 31 33 33 34 33 27 23 23 21 21 24 22 19 24 25 24 23 27 24 23 21 17 14 15 13 10 12 14 13
38 38 38 39 39 42 42 44 44 45 44 43 36 31 31 27 29 32 34 33 32 33 32 33 30 26 21 21 26 27 23 24 23 26 22 20 18 18 17 13 11 7 6 10 8 10 11
37 38 38 39 39 41 41 42 45 45 44 39 33 34 34 33 29 32 35 33 33 32 30 31 25 25 23 26 26 25 23 25 26 23 24 22 20 18 16 13 9 5 4 4 4 4 7
36 37 38 38 39 40 41 42 45 45 42 37 39 40 36 33 31 30 32 30 30 28 27 26 25 26 27 27 25 23 25 24 20 25 24 22 20 16 11 8 5 4 6 5 5 4 4
36 36 37 37 38 40 41 42 44 45 42 40 40 38 35 30 32 32 30 30 31 31 28 29 27 24 24 22 20 19 18 18 18 18 22 19 18 15 12 11 5 5 20 21 20 18 20
36 36 37 37 39 40 41 39 46 45 42 41 41 39 37 32 30 30 33 33 31 32 26 22 24 24 24 19 12 10 11 11 12 14 14 18 16 13 11 6 6 12 25 24 22 17 24
40 40 40 40 41 41 42 43 44 44 41 42 40 43 39 35 31 32 34 34 33 30 27 26 26 24 21 19 12 4 5 7 9 8 8 10 14 14 9 8 6 24 25 24 25 18 24
39 40 40 42 41 42 43 44 44 43 42 41 41 42 39 35 35 32 31 32 29 24 23 25 25 23 23 22 18 11 5 9 14 13 16 14 13 11 11 14 22 25 26 27 20 19 24
40 41 40 42 43 42 42 42 43 42 41 40 41 43 40 34 32 31 30 26 24 20 22 23 18 18 20 20 17 19 22 11 23 28 19 17 17 16 15 18 16 25 26 22 25 26 26
39 42 41 41 40 40 39 40 41 40 41 42 38 41 41 34 31 31 30 30 28 25 22 22 24 20 24 21 22 24 22 24 23 18 26 22 27 26 23 23 25 26 25 28 28 27 27
Wind_Speed
5 7 8 6 6 9 10 10 10 11 11 12 14 13 14 16 18 17 16 15 13 10 7 5 10 14 12 10 19 4 8 6 7 9 13 13 14 15 20 17 20 25 26 26 27 25 24
8 8 7 3 6 9 10 10 10 11 11 12 12 14 14 15 17 15 15 15 14 10 5 5 8 13 9 20 15 13 8 10 10 13 13 14 14 17 22 24 25 27 30 30 22 23 26
7 8 6 7 7 10 10 7 9 9 9 12 12 14 14 14 14 16 15 15 14 10 4 4 7 7 13 25 20 25 11 14 16 15 17 17 16 17 15 20 19 21 25 28 30 31 32
9 10 10 10 10 11 11 9 9 10 11 11 14 13 15 15 14 14 14 14 15 11 6 5 7 8 12 14 20 25 21 25 16 16 16 17 18 20 22 23 30 30 30 31 23 27 31
11 10 12 13 12 13 13 12 12 12 11 13 14 15 15 16 15 14 12 13 11 7 3 5 6 6 17 7 14 18 18 19 16 18 14 15 12 20 18 21 25 20 30 30 35 28 28
14 13 13 13 13 13 13 13 14 13 12 13 15 16 16 16 15 11 10 15 10 4 4 8 12 8 11 17 16 9 9 15 16 13 13 12 9 18 16 20 29 25 25 30 32 28 20
16 15 14 14 13 16 14 13 13 13 14 14 17 17 15 15 13 22 18 11 1 5 8 15 12 11 9 6 7 8 6 8 14 14 18 18 18 23 22 26 31 29 33 36 34 33 35
15 15 15 15 16 15 15 15 15 15 16 17 17 16 15 13 10 24 14 6 10 9 16 27 30 32 32 29 33 26 15 14 16 25 22 23 31 26 27 29 32 34 37 37 33 33 30
15 15 16 17 17 18 18 17 15 18 18 17 17 17 13 14 13 17 15 11 5 7 10 22 31 34 32 28 33 31 27 26 27 27 27 30 33 28 30 31 34 33 34 34 38 34 35
18 18 19 20 19 19 19 18 17 18 19 18 18 17 12 13 6 8 12 14 3 2 7 16 17 13 15 29 29 30 31 30 35 39 34 35 30 35 34 35 34 31 26 33 33 28 26
20 21 20 19 18 18 18 19 19 19 21 21 21 19 12 15 4 11 8 15 7 5 6 6 2 3 5 20 6 4 25 25 33 37 34 40 32 33 29 32 30 30 28 23 27 19 28
22 22 21 19 19 18 19 19 20 20 22 23 23 21 17 15 15 10 20 17 5 5 15 7 7 7 10 15 19 9 7 12 18 27 27 36 30 31 19 22 24 18 21 25 27 21 27
21 24 21 19 18 18 20 20 20 20 23 24 25 24 18 11 16 23 24 11 8 14 7 17 22 14 14 17 18 20 20 19 15 18 25 26 31 32 18 21 17 16 16 12 6 14 27
19 21 21 19 19 19 20 20 20 21 23 26 26 27 15 16 18 30 20 9 13 24 32 10 4 20 21 17 23 20 16 21 16 19 21 18 17 20 18 22 17 11 13 11 9 12 22
20 18 20 20 19 20 20 20 19 22 23 24 26 14 7 12 28 24 20 18 21 30 23 31 32 23 24 20 22 20 16 21 20 18 21 10 11 3 10 15 13 15 21 22 11 19 20
23 20 17 20 20 19 18 19 20 23 26 22 17 6 2 7 27 22 17 23 26 26 28 27 26 20 26 25 26 23 19 12 16 21 20 15 17 4 7 5 10 10 3 5 4 6 13
22 21 20 20 19 19 19 19 20 25 29 29 9 7 1 13 13 8 20 19 27 29 27 21 25 25 22 18 27 10 15 14 1 9 2 10 5 4 9 11 17 14 17 9 6 6 6
24 23 23 22 22 21 20 19 15 20 32 20 9 12 4 20 12 5 19 8 11 22 25 27 22 21 21 21 21 19 14 4 9 2 5 6 3 8 14 6 7 7 12 16 19 16 14
25 25 24 24 23 22 20 17 11 2 9 7 7 5 5 11 16 16 14 14 12 17 22 21 23 19 16 15 9 14 3 6 3 6 5 7 1 8 8 10 12 9 15 15 14 14 20
26 26 26 26 25 24 21 19 18 10 4 2 8 8 1 6 4 21 19 14 21 16 15 24 16 21 17 16 13 6 10 4 3 4 5 8 8 9 8 2 6 8 15 17 18 17 19
27 27 26 25 25 24 23 23 24 19 9 3 4 6 9 14 20 7 18 12 22 9 17 18 15 19 19 13 12 9 11 10 6 4 2 3 11 13 17 21 12 15 14 13 18 19 21
29 27 26 26 26 27 25 23 29 24 15 4 7 6 10 4 28 22 15 18 21 18 17 21 17 19 11 9 15 14 16 14 9 16 11 8 8 4 13 15 16 18 18 18 21 21 22
29 28 27 27 27 28 25 29 33 29 17 4 5 5 5 6 22 27 20 18 23 22 9 14 16 11 15 20 6 2 14 16 9 14 13 11 6 6 11 10 11 12 16 22 21 19 21
27 28 28 28 28 27 25 26 28 32 19 5 4 8 6 7 21 26 25 22 23 19 10 19 22 19 10 13 10 10 7 6 1 3 11 7 11 8 11 1 9 4 10 8 6 11 13
29 32 35 32 29 25 24 23 29 28 24 6 4 4 6 6 23 21 16 18 17 19 17 13 11 13 15 10 6 6 3 2 7 9 9 9 10 8 10 12 14 5 6 5 4 5 9
37 26 24 26 27 23 20 26 25 26 26 10 11 9 4 4 19 21 28 22 13 21 13 10 9 8 9 4 5 8 7 7 7 6 10 11 11 12 9 10 10 6 6 5 2 7 9
14 18 16 22 28 27 25 20 27 22 19 9 6 5 2 3 7 17 21 23 19 17 11 15 10 6 7 6 7 7 9 7 9 11 8 12 12 15 15 11 2 3 6 4 5 2 8
19 16 19 16 20 19 20 17 26 22 17 11 2 5 5 5 13 7 8 19 18 13 14 18 9 5 9 9 8 4 1 5 4 3 9 11 9 10 11 7 11 10 3 3 4 5 6
16 20 19 18 19 21 21 19 19 21 18 13 3 9 9 4 14 14 16 11 13 12 14 17 3 17 8 8 4 3 3 1 6 7 4 3 1 3 5 4 4 6 6 5 5 7 7
Wind_Direction
307 306 298 300 328 324 318 318 321 318 315 315 314 312 306 288 279 254 241 231 222 231 256 300 316 324 336 268 263 173 153 187 217 243 267 270 265 271 265 270 278 268 268 271 274 269 268
289 284 289 296 315 308 303 310 309 303 305 305 305 304 305 306 290 265 251 226 214 214 227 288 311 323 276 272 268 177 199 198 240 235 257 262 269 279 288 279 279 282 286 285 280 279 275
286 301 298 311 304 300 286 296 316 320 327 318 314 306 297 302 305 291 260 217 204 189 189 274 303 307 262 250 275 285 241 251 258 254 264 268 269 264 277 281 270 270 275 276 265 267 266
278 280 283 283 287 290 278 272 273 285 294 299 305 309 306 298 295 297 274 209 183 169 173 259 289 293 265 263 249 256 255 260 242 264 264 272 278 277 267 268 275 275 274 272 268 265 256
269 276 280 279 281 280 285 268 273 279 288 297 295 298 299 301 294 285 267 175 145 143 166 254 275 224 278 237 234 245 246 249 247 242 246 261 264 260 259 258 267 253 264 268 279 264 261
264 271 281 277 284 283 279 279 275 286 294 297 297 298 298 296 296 287 142 116 123 147 222 239 253 261 249 255 243 201 215 219 238 243 230 233 244 244 237 247 257 267 267 272 278 283 271
252 261 272 281 281 287 282 278 287 294 295 290 296 297 295 292 300 129 119 108 170 249 206 219 224 238 222 289 182 212 209 223 225 231 227 218 235 242 250 252 260 265 269 275 280 287 296
258 258 266 276 280 280 283 283 288 291 291 292 293 295 290 287 282 169 176 186 228 351 292 230 248 260 255 267 271 267 244 219 232 239 234 235 242 249 259 268 276 275 276 279 280 281 276
260 259 262 270 274 276 279 284 286 291 290 290 294 297 289 284 273 183 203 202 280 336 271 276 254 251 248 233 250 253 250 239 234 245 244 245 257 267 262 258 263 264 269 277 277 280 284
254 255 256 264 267 273 276 279 280 286 287 294 299 297 288 284 228 190 222 204 103 327 295 279 251 248 222 232 253 250 235 244 249 252 248 251 266 274 266 271 269 264 276 292 295 290 287
259 258 257 259 262 267 272 276 275 281 289 296 298 295 270 208 189 184 163 135 149 66 262 287 192 87 131 184 246 83 215 224 244 250 248 255 257 259 258 259 267 277 278 280 295 303 280
265 257 258 258 263 268 273 272 272 278 287 292 294 291 270 237 221 176 141 137 112 159 236 254 189 196 226 223 238 268 255 212 252 246 249 259 254 260 279 271 279 299 304 265 263 247 263
265 260 257 259 264 270 275 272 270 279 286 291 292 286 267 198 201 153 143 140 159 215 209 250 245 212 232 251 235 236 246 239 232 233 245 250 253 252 221 259 270 288 280 282 272 243 252
266 262 258 260 263 268 275 270 263 275 284 292 290 291 241 190 158 154 152 159 212 227 226 262 269 243 238 245 244 248 234 253 241 245 274 273 283 264 213 229 254 261 276 218 262 262 267
263 263 261 261 260 264 271 270 264 276 282 290 300 286 195 182 160 164 163 204 217 230 236 226 247 238 253 241 247 264 240 246 255 233 235 248 251 255 258 239 225 258 240 249 272 281 279
258 261 264 263 266 265 273 268 269 279 280 285 289 141 119 175 160 169 189 225 230 237 255 259 260 241 246 248 254 234 241 241 255 248 227 243 271 256 272 253 241 240 319 228 202 250 251
255 257 261 264 263 271 274 268 265 283 279 281 181 170 201 146 150 192 215 220 233 244 249 270 256 247 244 268 279 227 240 256 186 267 354 244 242 269 202 223 225 218 236 225 242 243 302
252 254 256 258 261 262 269 265 265 323 276 156 150 183 175 151 171 202 213 217 252 244 237 249 262 254 245 255 279 262 249 352 19 78 208 66 227 234 208 225 306 280 245 249 243 253 261
246 248 249 252 256 254 256 248 229 316 332 116 116 106 290 186 188 204 214 231 232 235 234 225 224 239 239 247 249 258 169 72 54 170 200 171 45 260 255 258 239 244 238 243 251 256 262
249 249 248 249 252 251 246 234 208 182 233 87 136 141 189 202 285 208 200 220 221 225 223 226 235 237 229 223 219 232 205 121 164 224 83 222 183 200 247 266 244 238 248 248 238 243 256
251 248 247 251 252 247 254 234 207 192 200 222 180 186 187 192 215 208 196 209 207 189 210 219 237 231 208 200 189 211 216 162 191 161 168 241 243 262 263 277 282 270 261 249 257 243 249
245 248 247 246 247 240 254 220 206 191 161 197 165 179 174 248 205 211 206 205 194 197 186 208 215 208 195 189 201 204 210 209 201 211 214 224 251 324 277 279 283 275 274 259 265 266 265
250 249 247 245 245 236 248 213 221 178 155 161 216 280 196 229 191 197 204 199 194 186 218 215 208 194 211 224 201 272 177 194 188 171 199 201 223 240 279 288 298 281 269 255 267 268 275
250 252 252 249 240 230 239 222 217 170 169 173 209 230 193 203 185 201 196 189 178 184 192 206 205 213 111 106 98 80 79 81 102 156 181 212 221 240 261 275 259 258 59 21 335 307 334
256 253 249 239 225 229 217 213 211 167 167 178 268 198 211 199 198 200 214 193 185 178 200 180 64 119 141 140 119 128 155 179 226 228 211 210 245 239 234 254 273 218 38 31 32 287 348
247 236 226 223 219 206 207 216 185 163 178 191 254 245 260 202 199 183 188 187 168 182 111 114 105 118 130 127 178 202 184 202 166 176 220 218 222 251 234 260 274 88 38 16 353 264 15
242 224 237 213 196 196 188 167 164 164 172 206 273 139 277 190 145 190 184 170 182 154 136 144 134 134 150 158 190 218 222 178 170 184 185 204 213 225 236 241 148 11 346 322 242 16 346
230 183 198 162 147 152 148 165 173 163 185 215 134 128 253 110 70 123 187 185 168 164 152 157 139 166 182 196 197 193 230 184 104 99 173 184 198 208 232 243 242 358 267 250 4 59 22
166 159 146 156 156 153 155 158 152 168 205 213 143 231 236 50 104 86 71 48 36 27 140 165 130 166 175 208 156 97 133 109 153 181 180 191 55 25 26 56 84 48 79 57 46 78 75